Showing default

FLOCK 4G 17, 62681

Orbit data source: Space-Track

FLOCK 4G 17, 62681 is a payload satellite owned by Planet (US) in SSO that was launched on Tue, 14 Jan 2025 UTC via an FALCON 9 launch vehicle from the Air Force Western Test Range (AFWTR). Payload-class satellites include a variety of spacecraft equipped with specific instruments for various scientific and technological missions. These include communications satellites like Starlink; space stations such as the ISS; scientific satellites like the Hubble; Earth observation satellites from companies like Planet Labs, Umbra, and HawkEye 360; GPS; miniature CubeSats for education and research; and military/defense satellites.

Loading next visibility...
Identifier
62681, 2025-009CA
Orbit
SSO
Country
Flag of USUS
Related business
Manufacturer
Planet
Mission
Operational Commercial Imaging
Bus & Motor
CUBESAT 3U, Unknown motor
Mass
5.7 kg wet, 5.7 kg dry
Launch date (UTC)
2025-01-14 (11 months ago)
Launch vehicle
FALCON 9
Launch site
Air Force Western Test Range (AFWTR)
Object type
Payload
Rocket body
Debris
Shape & HBR
Box + 2 Pan, 1.0 m
Radar Cross Section
0.072 m², Medium (>0.1 m² and < 1m²)

Expand to show TLE details & history
Last TLE update: 14 hours ago

TLE from 14 hours ago
0 FLOCK 4G 17
1 62681U 25009CA  25346.95147110  .00015108  00000-0  60525-3 0  9993
2 62681  97.4104  64.8104 0003770 271.2009  88.8797 15.25126847108121
Epoch: 2025-12-12T22:50Z
TLE epoch observation values (Epoch: 2025-12-12T22:50:07.103Z)
Latitude
0.00001°
Longitude
0.39508°
Altitude
493.452 km
Speed
7.618 km/s
True Right ascension
04h 19m 14s
True Declination
0° 00' 00"
Sunlit
Object was in full shadow at epoch
Visualization orbit readout
Latitude
Unknown
Longitude
Unknown
Altitude
Unknown
Speed
Unknown
Apparent Right ascension
Unknown
Apparent Declination
Unknown
Sunlit
N/A
Visualization observer readout
Local Sidereal Time
11:35:10
Azimuth
Unknown
Elevation
Unknown
Doppler factor
Unknown
Orbital elements
Apogee altitude
489.952 km
Perigee altitude
484.775 km
Semi-major axis
6,865.501 km
Eccentricity
0.00038
Inclination
97.4104°
RAAN
64.8104°
Arg. of periapsis
271.2009°
True anomaly
88.92289°
Mean anomaly
88.8797°
Eccentric anomaly
88.9013°
Mean motion
3.81535 °/min
Orbital period
94.36 mins
BSTAR
0.00060525
Loading maneuver chart data...
Computing Atmospheric mass density...
Loading historical data...
Loading historical data...
Loading historical data...
Loading historical data...
Loading historical data...
Loading historical data...
Loading historical data...

Documentation

Showing up to 5 results
|